Location: *
(49.3500°N, 12.6000°E)
Time: 15:00:36
(UTC+00:00)

STARLINK-28 - Pass Details

Date: 18 October 2019
Orbit: 548 x 551 km, 53.0° (Epoch: 12 November)

Event Time Altitude Azimuth Distance (km) Brightness Sun altitude
Rises 17:46:00 0° 267° (W) 2,716 9.0 -15.7°
Reaches altitude 10° 17:48:16 10° 272° (W) 1,824 7.6 -16.0°
Maximum altitude 17:52:21 54° 351° (N) 670 4.1 -16.7°
Enters shadow 17:54:15 29° 56° (NE) 1,038 4.6 -17.0°
